Chesapeake, VA

5:15 PM EDT on May 28, 2017 (GMT -0400)
Chesapeake Regional

Weather History for KCPK - December, 2012

Change the Weather History Date:

Monday, December 17, 2012

  Actual Average (KSFQ) Record (KSFQ)
Temperature  
Mean Temperature 60 °F -  
Max Temperature 64 °F 51 °F 71 °F (2000)
Min Temperature 55 °F 32 °F 11 °F (1951)
Degree Days  
Heating Degree Days 6    
Growing Degree Days 10 (Base 50)    
Moisture  
Dew Point 56 °F    
Average Humidity 89    
Maximum Humidity 100    
Minimum Humidity 73    
Precipitation  
Precipitation 0.22 in - - ()
Sea Level Pressure  
Sea Level Pressure 29.79 in    
Wind  
Wind Speed 4 mph (SSW)    
Max Wind Speed 18 mph    
Max Gust Speed 30 mph    
Visibility 8 miles    
Events Rain    
Averages and records for this station are not official NWS values.
T = Trace of Precipitation, MM = Missing Value Source: NWS Daily Summary

Daily Weather History Graph

Daily Weather History Graph

Search for Another Location

Airport or City:

Trip Planner

Search our weather history database for the weather conditions in past years. The results will help you decide how hot, cold, wet, or windy it might be!

Date:

Astronomy

Dec. 17, 2012 Rise Set
Actual Time 7:11 AM EST 4:51 PM EST
Civil Twilight 6:43 AM EST 5:20 PM EST
Nautical Twilight 6:10 AM EST 5:52 PM EST
Astronomical Twilight 5:39 AM EST 6:24 PM EST
Moon 10:25 AM EST (12/17) 10:03 PM EST (12/17)
Length of Visible Light 10h 37m
Length of Day
9h 39m
Waxing Crescent, 24% of the Moon is Illuminated
Dec 17
Waxing Crescent
Dec 20
First Quarter
Dec 28
Full
Jan 4
Last Quarter
Jan 11
New

Hourly Weather History & Observations

Time (EST) Temp. Dew Point Humidity Pressure Visibility Wind Dir Wind Speed Gust Speed Precip Events Conditions
12:15 AM 57.2 °F 55.4 °F 94% 29.90 in 5.0 mi SSW 5.8 mph - 0.01 in Rain Rain
12:35 AM 57.2 °F 57.2 °F 100% 29.90 in 7.0 mi SSW 4.6 mph - 0.02 in Rain Light Rain
12:55 AM 57.2 °F 57.2 °F 100% 29.89 in 7.0 mi SSW 4.6 mph - 0.01 in Rain Light Rain
1:15 AM 57.2 °F 57.2 °F 100% 29.90 in 7.0 mi SSW 6.9 mph - 0.02 in Rain Rain
1:35 AM 57.2 °F 57.2 °F 100% 29.90 in 7.0 mi SW 5.8 mph - 0.05 in Rain Rain
1:55 AM 57.2 °F 57.2 °F 100% 29.90 in 7.0 mi SW 5.8 mph - 0.02 in Rain Rain
2:15 AM 57.2 °F 57.2 °F 100% 29.89 in 10.0 mi WSW 6.9 mph - 0.08 in Rain Rain
2:35 AM 57.2 °F 57.2 °F 100% 29.88 in 7.0 mi Calm Calm - 0.12 in Rain Rain
2:55 AM 57.2 °F 57.2 °F 100% 29.89 in 10.0 mi SSW 6.9 mph - N/A   Light Drizzle
3:15 AM 57.2 °F 55.4 °F 94% 29.87 in 10.0 mi Calm Calm - N/A   Drizzle
3:35 AM 57.2 °F 55.4 °F 94% 29.87 in 7.0 mi South 3.5 mph - N/A Rain Light Rain
3:55 AM 57.2 °F 55.4 °F 94% 29.87 in 7.0 mi Calm Calm - N/A   Light Drizzle
4:15 AM 55.4 °F 55.4 °F 100% 29.85 in 4.0 mi Calm Calm - 0.01 in Rain Light Rain
4:35 AM 57.2 °F 55.4 °F 94% 29.84 in 5.0 mi Calm Calm - 0.01 in Rain Light Rain
4:55 AM 57.2 °F 55.4 °F 94% 29.82 in 7.0 mi SSE 4.6 mph - N/A   Light Drizzle
5:15 AM 57.2 °F 55.4 °F 94% 29.82 in 7.0 mi SSE 6.9 mph - N/A   Scattered Clouds
5:35 AM 57.2 °F 55.4 °F 94% 29.80 in 7.0 mi SSE 6.9 mph - N/A   Mostly Cloudy
5:55 AM 57.2 °F 55.4 °F 94% 29.81 in 5.0 mi South 5.8 mph - N/A Rain Rain
6:15 AM 57.2 °F 55.4 °F 94% 29.82 in 5.0 mi South 8.1 mph - N/A   Drizzle
6:35 AM 57.2 °F 57.2 °F 100% 29.81 in 5.0 mi South 5.8 mph - 0.01 in   Light Drizzle
6:55 AM 57.2 °F 57.2 °F 100% 29.80 in 5.0 mi Calm Calm - N/A   Light Drizzle
7:15 AM 57.2 °F 57.2 °F 100% 29.81 in 5.0 mi Calm Calm - N/A Rain Light Rain
7:35 AM 57.2 °F 57.2 °F 100% 29.81 in 5.0 mi Calm Calm - N/A Rain Light Rain
7:55 AM 57.2 °F 57.2 °F 100% 29.81 in 5.0 mi NNW 3.5 mph - N/A   Light Drizzle
8:15 AM 57.2 °F 57.2 °F 100% 29.82 in 4.0 mi NNW 4.6 mph - N/A Rain Light Rain
8:35 AM 57.2 °F 57.2 °F 100% 29.85 in 5.0 mi NW 9.2 mph - N/A   Overcast
8:55 AM 57.2 °F 57.2 °F 100% 29.85 in 2.5 mi Calm Calm - 0.01 in Rain Light Rain
9:15 AM 57.2 °F 57.2 °F 100% 29.85 in 5.0 mi Calm Calm - 0.01 in   Overcast
9:35 AM 57.2 °F 57.2 °F 100% 29.84 in 10.0 mi Calm Calm - 0.01 in   Overcast
9:55 AM 57.2 °F 57.2 °F 100% 29.84 in 10.0 mi ESE 3.5 mph - N/A   Overcast
10:15 AM 59.0 °F 57.2 °F 94% 29.84 in 10.0 mi Calm Calm - N/A   Overcast
10:35 AM 59.0 °F 57.2 °F 94% 29.85 in 10.0 mi Calm Calm - N/A   Mostly Cloudy
10:55 AM 60.8 °F 57.2 °F 88% 29.84 in 10.0 mi Calm Calm - N/A   Scattered Clouds
11:15 AM 60.8 °F 57.2 °F 88% 29.83 in 10.0 mi Calm Calm - N/A   Scattered Clouds
11:35 AM 60.8 °F 57.2 °F 88% 29.81 in 10.0 mi Calm Calm - N/A   Clear
11:55 AM 62.6 °F 57.2 °F 82% 29.81 in 10.0 mi Calm Calm - N/A   Clear
12:15 PM 64.4 °F 57.2 °F 77% 29.80 in 10.0 mi Calm Calm - N/A   Clear
12:35 PM 64.4 °F 57.2 °F 77% 29.79 in 10.0 mi WSW 4.6 mph - N/A   Scattered Clouds
12:55 PM 64.4 °F 57.2 °F 77% 29.78 in 10.0 mi Calm Calm - N/A   Mostly Cloudy
1:15 PM 64.4 °F 55.4 °F 73% 29.78 in 7.0 mi Calm Calm - N/A   Mostly Cloudy
1:35 PM 64.4 °F 55.4 °F 73% 29.76 in 10.0 mi Calm Calm - N/A   Mostly Cloudy
1:55 PM 64.4 °F 55.4 °F 73% 29.75 in 10.0 mi Calm Calm - N/A   Scattered Clouds
2:15 PM 64.4 °F 55.4 °F 73% 29.75 in 10.0 mi Calm Calm - N/A   Scattered Clouds
2:35 PM 64.4 °F 55.4 °F 73% 29.75 in 10.0 mi Calm Calm - N/A   Mostly Cloudy
2:55 PM 64.4 °F 55.4 °F 73% 29.74 in 10.0 mi Calm Calm - N/A   Overcast
3:15 PM 64.4 °F 55.4 °F 73% 29.74 in 7.0 mi Calm Calm - N/A   Scattered Clouds
3:35 PM 64.4 °F 57.2 °F 77% 29.76 in 7.0 mi SW 3.5 mph - N/A   Mostly Cloudy
3:55 PM 64.4 °F 57.2 °F 77% 29.76 in 7.0 mi Calm Calm - N/A   Mostly Cloudy
4:15 PM 62.6 °F 57.2 °F 82% 29.76 in 7.0 mi WSW 3.5 mph - N/A   Mostly Cloudy
4:35 PM 62.6 °F 55.4 °F 77% 29.76 in 10.0 mi SSW 4.6 mph - N/A   Scattered Clouds
4:55 PM 60.8 °F 57.2 °F 88% 29.77 in 10.0 mi SSW 5.8 mph - N/A Rain Light Rain
7:35 PM 60.8 °F 57.2 °F 88% 29.71 in 10.0 mi South 9.2 mph 16.1 mph N/A   Light Drizzle
7:55 PM 60.8 °F 57.2 °F 88% 29.71 in 10.0 mi South 10.4 mph - N/A Rain Light Rain
8:15 PM 60.8 °F 57.2 °F 88% 29.70 in 10.0 mi South 10.4 mph - N/A Rain Light Rain
8:35 PM 60.8 °F 57.2 °F 88% 29.67 in 7.0 mi SSE 12.7 mph 17.3 mph N/A   Overcast
8:55 PM 60.8 °F 57.2 °F 88% 29.66 in 10.0 mi South 16.1 mph 21.9 mph N/A   Overcast
9:15 PM 60.8 °F 55.4 °F 82% 29.67 in 10.0 mi SSW 11.5 mph 15.0 mph N/A Rain Light Rain
9:35 PM 60.8 °F 55.4 °F 82% 29.65 in 10.0 mi South 9.2 mph - N/A   Light Drizzle
9:55 PM 60.8 °F 55.4 °F 82% 29.63 in 10.0 mi South 17.3 mph 27.6 mph N/A Rain Light Rain
10:15 PM 60.8 °F 55.4 °F 82% 29.60 in 10.0 mi SSE 18.4 mph 29.9 mph N/A   Overcast
10:35 PM 60.8 °F 55.4 °F 82% 29.68 in 10.0 mi West 18.4 mph 25.3 mph N/A   Overcast
10:55 PM 60.8 °F 55.4 °F 82% 29.66 in 10.0 mi SSW 8.1 mph - N/A   Mostly Cloudy
11:15 PM 60.8 °F 55.4 °F 82% 29.66 in 10.0 mi SSW 6.9 mph - N/A   Clear
11:35 PM 59.0 °F 55.4 °F 88% 29.66 in 10.0 mi SSW 8.1 mph - N/A   Scattered Clouds
11:55 PM 59.0 °F 55.4 °F 88% 29.66 in 10.0 mi South 8.1 mph - N/A   Overcast